Regional Weather Roundup
Issued by NWS Spokane, WA

Home | Current Version | Previous Version | Text Only | Print | Product List | Glossary On
Versions: 1 2 3 4 5 6 7 8 9 10 11 12 13 14 15 16 17 18 19 20 21 22 23 24 25 26 27 28 29 30 31 32 33 34 35 36 37 38 39 40 41 42 43 44 45 46 47 48 49 50
000
NZUS01 KOTX 010310
RWROTX
EASTERN WASHINGTON/NORTHERN IDAHO ROUNDUP
NATIONAL WEATHER SERVICE, SPOKANE WA
800 PM PDT SAT APR 30 2016

Note: "fair" indicated few or no clouds below 12,000 feet with no
significant weather and/or obstructions to visibility.

...NORTHEAST WASHINGTON AND NORTHERN IDAHO PANHANDLE...

CITY           SKY/WX    TMP DP  RH WIND       PRES   REMARKS
SPOKANE INTL   MOCLDY    57  42  57 VRB5      30.24S
SPOKANE DOWNTO PTCLDY    53  48  83 CALM      30.24F
COEUR D ALENE  PTCLDY    52  45  76 SE5       30.22S
DEER PARK      CLEAR     54  43  66 S6        30.25R
SANDPOINT      CLEAR     59  36  41 N6        30.23S

...SOUTHEAST WASHINGTON AND SOUTHERN IDAHO PANHANDLE...

CITY           SKY/WX    TMP DP  RH WIND       PRES   REMARKS
WALLA WALLA    CLEAR     56  47  71 NE9       30.20R
PULLMAN/MOSCOW CLEAR     50  45  83 CALM      30.24R
LEWISTON       CLEAR     58  44  60 NW3       30.21R
LOWELL           N/A     53  48  83 CALM      30.20R

...COLUMBIA BASIN...

CITY           SKY/WX    TMP DP  RH WIND       PRES   REMARKS
EPHRATA        PTCLDY    65  45  48 E7        30.21R
MOSES LAKE     CLOUDY    67  43  41 NE6       30.22R
TRI CITIES     CLEAR     65  44  46 NE8       30.20R
HERMISTON      CLEAR     63  45  51 NE8       30.18R
PENDLETON      PTCLDY    56  42  59 NE8       30.19R

...EAST SLOPES CASCADES...

CITY           SKY/WX    TMP DP  RH WIND       PRES   REMARKS
THE DALLES     CLEAR     67  45  45 NW10      30.16S
YAKIMA         PTCLDY    69  36  29 SE6       30.20R
ELLENSBURG     CLEAR     62  41  46 NW13      30.22R
STAMPEDE PASS  CLEAR     45  38  76 VRB5      30.30R
WENATCHEE      CLEAR     67  39  35 SE14      30.21R
OMAK           CLEAR     60  35  39 N12       30.21R

...SOUTHERN BRITISH COLUMBIA...

CITY           SKY/WX    TMP DP  RH WIND       PRES   REMARKS
PENTICTON      CLEAR     59  37  44 N8        30.24R
CASTLEGAR      PTCLDY    59  43  55 N13       30.25S
CRANBROOK      PTCLDY    55  34  44 W5        30.27R

...WESTERN MONTANA...

CITY           SKY/WX    TMP DP  RH WIND       PRES   REMARKS
MISSOULA       CLOUDY    52  42  69 E3        30.26R

...NEIGHBORING CITIES...

CITY           SKY/WX    TMP DP  RH WIND       PRES   REMARKS
SEATTLE        PTCLDY    62  40  44 N8        30.30S
CALGARY        PTCLDY    50  28  43 S6G30     30.29R



USA.gov is the U.S. government's official web portal to all federal, state and local government web resources and services.